{"data":{"norad_id":57255,"epoch":"2026-09-20T06:42:01.582272Z","epoch_age_seconds":143250,"freshness":"FRESH","line1":"1 57255U 23094AP  26263.27918498 -.00000176  00000+0  31416-5 0  9993","line2":"2 57255  43.0051   0.6282 0001422 266.4473  93.6216 15.27578016177002","mean_motion":15.27578016,"eccentricity":0.0001422,"inclination_deg":43.0051,"raan_deg":0.6282,"arg_perigee_deg":266.4473,"mean_anomaly_deg":93.6216,"bstar":3.1416e-6,"rev_number":17700,"period_min":94.266871146174,"perigee_km":482.07937534818,"apogee_km":484.03069836346,"semimajor_km":6861.1920368558,"source":"CELESTRAK","updated_at":"2026-09-21T09:00:33.592220Z"}}